Home   Weather   Helsinki   Past weeks

Flag for Finland Past Weather in Helsinki, Finland — Yesterday and Last 2 Weeks

Now
50 °F

Clear.


Feels Like: 48 °F
Forecast: 53 / 65 °F
Wind: 6 mph from Northwest

Location: Helsinki-Vantaa

Current Time: Jul 21, 2017 at 4:04:59 am

Latest Report: Jul 21, 2017 at 3:20 am


Visibility: 10 mi

Pressure: 29.95 "Hg

Humidity: 94%

Dew Point: 48 °F

Location of HelsinkiLocation

Past Weather in Helsinki — Graph

°F

Helsinki Temperature Yesterday

Maximum temperature yesterday: 66 °F (at 6:20 pm)
Minimum temperature yesterday: 52 °F (at 2:50 am)
Average temperature yesterday: 58 °F

High & Low Weather Summary for the Past Weeks

 TemperatureHumidityPressure
High75 °F (Jul 16, 4:20 pm)100% (Jul 11, 6:20 pm)30.07 "Hg (Jul 11, 6:20 pm)
Low41 °F (Jul 15, 4:50 am)31% (Jul 16, 1:20 pm)29.50 "Hg (Jul 12, 8:50 am)
Average59 °F71%29.83 "Hg
* Reported Jul 6 2:20 am — Jul 21 2:50 am, Helsinki. Weather by CustomWeather, © 2017

Note: Actual official high and low records may vary slightly from our data, if they occured in-between our weather recording intervals... More about our weather records

Advertising

Helsinki Weather History for the Previous 24 Hours

Scroll right to see more
 ConditionsComfort  
Time TempWeatherWind HumidityBarometerVisibility
2:50 am
Fri, Jul 21
52 °FClear.5 mph88%29.95 "Hg10 mi
2:20 am52 °FClear.5 mph94%29.95 "Hg10 mi
1:50 am54 °FClear.7 mph88%29.95 "Hg10 mi
1:20 am54 °FClear.6 mph88%29.95 "Hg10 mi
12:50 am55 °FClear.7 mph82%29.92 "Hg10 mi
12:20 am55 °FClear.5 mph82%29.92 "Hg10 mi
11:50 pm
Thu, Jul 20
55 °FClear.5 mph82%29.92 "Hg10 mi
11:20 pm57 °FClear.5 mph77%29.92 "Hg10 mi
10:50 pm57 °FClear.6 mph77%29.92 "Hg10 mi
10:20 pm57 °FSunny.6 mph77%29.92 "Hg10 mi
9:50 pm57 °FSunny.6 mph77%29.92 "Hg10 mi
9:20 pm59 °FSunny.6 mph72%29.92 "Hg10 mi
8:50 pm61 °FSunny.9 mph68%29.89 "Hg10 mi
8:20 pm63 °FPassing clouds.7 mph64%29.89 "HgN/A
7:50 pm61 °FSunny.9 mph63%29.89 "Hg10 mi
7:20 pm63 °FScattered showers. Scattered clouds.9 mph56%29.89 "HgN/A
6:50 pm63 °FScattered showers. Scattered clouds.9 mph56%29.89 "HgN/A
6:20 pm66 °FScattered clouds.8 mph46%29.89 "HgN/A
5:50 pm64 °FScattered clouds.10 mph49%29.89 "HgN/A
5:20 pm64 °FScattered clouds.8 mph49%29.89 "HgN/A
4:50 pm64 °FScattered clouds.7 mph52%29.89 "HgN/A
4:20 pm63 °FScattered clouds.10 mph56%29.89 "HgN/A
3:50 pm64 °FScattered clouds.13 mph52%29.92 "HgN/A
2:50 pm63 °FScattered showers. Broken clouds.9 mph59%29.92 "HgN/A
2:20 pm61 °FScattered showers. Broken clouds.1 mph68%29.92 "HgN/A
1:50 pm59 °FSprinkles. Broken clouds.8 mph77%29.92 "HgN/A
1:20 pm61 °FScattered showers. Partly sunny.8 mph68%29.92 "HgN/A
12:50 pm59 °FBroken clouds.7 mph72%29.92 "HgN/A
12:20 pm59 °FPartly sunny.8 mph72%29.92 "HgN/A
11:50 am59 °FPartly sunny.9 mph72%29.92 "HgN/A
11:20 am59 °FPartly sunny.9 mph72%29.92 "HgN/A
10:50 am59 °FPartly sunny.9 mph68%29.92 "HgN/A
10:20 am59 °FPartly sunny.7 mph72%29.92 "HgN/A
9:50 am57 °FPartly sunny.9 mph77%29.92 "HgN/A
9:20 am55 °FBroken clouds.8 mph82%29.92 "HgN/A
8:50 am55 °FBroken clouds.7 mph82%29.92 "HgN/A
8:20 am55 °FPartly sunny.8 mph82%29.92 "HgN/A
7:50 am54 °FBroken clouds.7 mph88%29.92 "HgN/A
7:20 am54 °FPartly sunny.8 mph88%29.92 "HgN/A
6:50 am54 °FScattered clouds.7 mph88%29.92 "HgN/A
6:20 am54 °FBroken clouds.8 mph88%29.92 "HgN/A
5:50 am54 °FPartly sunny.7 mph88%29.92 "HgN/A
5:20 am54 °FPartly sunny.6 mph82%29.92 "HgN/A
4:20 am54 °FPassing clouds.8 mph82%29.92 "HgN/A
Weather by CustomWeather, © 2017

See weather overviewHow to use our weather pages